Year,Month,Day,Hour,Minute,Value (Times are PST for windspeed in km/hr)
2011,03,03,00,00,3.70
2011,03,03,00,01,8.50
2011,03,03,00,02,15.30
2011,03,03,00,03,19.50
2011,03,03,00,04,14.10
2011,03,03,00,05,13.40
2011,03,03,00,06,9.00
2011,03,03,00,07,10.90
2011,03,03,00,08,3.70
2011,03,03,00,09,2.70
2011,03,03,00,10,2.50
2011,03,03,00,11,4.20
2011,03,03,00,12,4.60
2011,03,03,00,13,6.70
2011,03,03,00,14,9.20
2011,03,03,00,15,4.50
2011,03,03,00,16,3.70
2011,03,03,00,17,2.20
2011,03,03,00,18,0.00
2011,03,03,00,19,2.80
2011,03,03,00,20,2.30
2011,03,03,00,21,2.00
2011,03,03,00,22,0.70
2011,03,03,00,23,4.40
2011,03,03,00,24,2.90
2011,03,03,00,25,1.80
2011,03,03,00,26,2.50
2011,03,03,00,27,3.40
2011,03,03,00,28,4.10
2011,03,03,00,29,2.80
2011,03,03,00,30,1.50
2011,03,03,00,31,1.20
2011,03,03,00,32,1.90
2011,03,03,00,33,1.10
2011,03,03,00,34,1.00
2011,03,03,00,35,0.40
2011,03,03,00,36,0.40
2011,03,03,00,37,0.10
2011,03,03,00,38,0.10
2011,03,03,00,39,0.10
2011,03,03,00,40,1.20
2011,03,03,00,41,1.00
2011,03,03,00,42,0.40
2011,03,03,00,43,0.20
2011,03,03,00,44,1.30
2011,03,03,00,45,2.30
2011,03,03,00,46,2.20
2011,03,03,00,47,1.50
2011,03,03,00,48,0.90
2011,03,03,00,49,1.40
2011,03,03,00,50,1.00
2011,03,03,00,51,1.20
2011,03,03,00,52,0.80
2011,03,03,00,53,1.00
2011,03,03,00,54,0.20
2011,03,03,00,55,0.20
2011,03,03,00,56,0.70
2011,03,03,00,57,2.50
2011,03,03,00,58,1.80
2011,03,03,00,59,1.60
2011,03,03,01,00,2.10
2011,03,03,01,01,1.90
2011,03,03,01,02,2.20
2011,03,03,01,03,2.50
2011,03,03,01,04,0.70
2011,03,03,01,05,2.30
2011,03,03,01,06,2.20
2011,03,03,01,07,1.80
2011,03,03,01,08,1.30
2011,03,03,01,09,1.70
2011,03,03,01,10,1.50
2011,03,03,01,11,0.70
2011,03,03,01,12,1.90
2011,03,03,01,13,1.60
2011,03,03,01,14,2.30
2011,03,03,01,15,2.80
2011,03,03,01,16,2.10
2011,03,03,01,17,3.10
2011,03,03,01,18,6.20
2011,03,03,01,19,8.40
2011,03,03,01,20,4.60
2011,03,03,01,21,5.50
2011,03,03,01,22,6.00
2011,03,03,01,23,8.60
2011,03,03,01,24,9.50
2011,03,03,01,25,6.90
2011,03,03,01,26,14.90
2011,03,03,01,27,13.90
2011,03,03,01,28,13.80
2011,03,03,01,29,11.30
2011,03,03,01,30,11.60
2011,03,03,01,31,11.60
2011,03,03,01,32,10.20
2011,03,03,01,33,10.00
2011,03,03,01,34,8.60
2011,03,03,01,35,6.40
2011,03,03,01,36,9.40
2011,03,03,01,37,15.70
2011,03,03,01,38,13.20
2011,03,03,01,39,10.70
2011,03,03,01,40,11.90
2011,03,03,01,41,10.80
2011,03,03,01,42,7.60
2011,03,03,01,43,7.20
2011,03,03,01,44,6.70
2011,03,03,01,45,4.80
2011,03,03,01,46,2.10
2011,03,03,01,47,4.40
2011,03,03,01,48,6.40
2011,03,03,01,49,6.10
2011,03,03,01,50,3.50
2011,03,03,01,51,1.50
2011,03,03,01,52,4.30
2011,03,03,01,53,6.30
2011,03,03,01,54,5.70
2011,03,03,01,55,6.00
2011,03,03,01,56,5.00
2011,03,03,01,57,7.10
2011,03,03,01,58,3.10
2011,03,03,01,59,1.00
2011,03,03,02,00,1.80
2011,03,03,02,01,1.00
2011,03,03,02,02,1.20
2011,03,03,02,03,3.30
2011,03,03,02,04,1.10
2011,03,03,02,05,2.30
2011,03,03,02,06,1.20
2011,03,03,02,07,1.20
2011,03,03,02,08,0.90
2011,03,03,02,09,3.60
2011,03,03,02,10,0.10
2011,03,03,02,11,2.40
2011,03,03,02,12,2.80
2011,03,03,02,13,1.50
2011,03,03,02,14,1.70
2011,03,03,02,15,1.20
2011,03,03,02,16,0.10
2011,03,03,02,17,0.00
2011,03,03,02,18,0.80
2011,03,03,02,19,0.00
2011,03,03,02,20,0.00
2011,03,03,02,21,0.00
2011,03,03,02,22,0.00
2011,03,03,02,23,0.00
2011,03,03,02,24,0.30
2011,03,03,02,25,0.50
2011,03,03,02,26,0.00
2011,03,03,02,27,0.30
2011,03,03,02,28,0.00
2011,03,03,02,29,0.00
2011,03,03,02,30,0.30
2011,03,03,02,31,1.00
2011,03,03,02,32,1.70
2011,03,03,02,33,1.80
2011,03,03,02,34,0.40
2011,03,03,02,35,1.20
2011,03,03,02,36,0.00
2011,03,03,02,37,0.10
2011,03,03,02,38,1.70
2011,03,03,02,39,2.30
2011,03,03,02,40,2.50
2011,03,03,02,41,2.10
2011,03,03,02,42,2.40
2011,03,03,02,43,0.70
2011,03,03,02,44,0.00
2011,03,03,02,45,0.80
2011,03,03,02,46,2.90
2011,03,03,02,47,1.60
2011,03,03,02,48,2.40
2011,03,03,02,49,3.20
2011,03,03,02,50,3.10
2011,03,03,02,51,4.20
2011,03,03,02,52,3.70
2011,03,03,02,53,2.40
2011,03,03,02,54,2.60
2011,03,03,02,55,0.10
2011,03,03,02,56,0.20
2011,03,03,02,57,0.00
2011,03,03,02,58,1.50
2011,03,03,02,59,2.00
2011,03,03,03,00,0.80
2011,03,03,03,01,1.20
2011,03,03,03,02,1.90
2011,03,03,03,03,2.80
2011,03,03,03,04,3.50
2011,03,03,03,05,4.00
2011,03,03,03,06,4.10
2011,03,03,03,07,2.10
2011,03,03,03,08,1.50
2011,03,03,03,09,0.80
2011,03,03,03,10,1.20
2011,03,03,03,11,0.90
2011,03,03,03,12,2.70
2011,03,03,03,13,1.70
2011,03,03,03,14,3.20
2011,03,03,03,15,2.10
2011,03,03,03,16,1.90
2011,03,03,03,17,2.50
2011,03,03,03,18,3.10
2011,03,03,03,19,3.90
2011,03,03,03,20,0.90
2011,03,03,03,21,1.10
2011,03,03,03,22,5.00
2011,03,03,03,23,5.00
2011,03,03,03,24,4.10
2011,03,03,03,25,4.70
2011,03,03,03,26,6.80
2011,03,03,03,27,5.10
2011,03,03,03,28,3.60
2011,03,03,03,29,7.20
2011,03,03,03,30,7.10
2011,03,03,03,31,10.00
2011,03,03,03,32,14.10
2011,03,03,03,33,14.80
2011,03,03,03,34,14.30
2011,03,03,03,35,18.10
2011,03,03,03,36,13.20
2011,03,03,03,37,16.10
2011,03,03,03,38,15.90
2011,03,03,03,39,13.60
2011,03,03,03,40,16.80
2011,03,03,03,41,15.90
2011,03,03,03,42,15.00
2011,03,03,03,43,10.60
2011,03,03,03,44,11.90
2011,03,03,03,45,10.00
2011,03,03,03,46,8.10
2011,03,03,03,47,11.10
2011,03,03,03,48,9.10
2011,03,03,03,49,11.20
2011,03,03,03,50,10.10
2011,03,03,03,51,10.60
2011,03,03,03,52,12.60
2011,03,03,03,53,12.70
2011,03,03,03,54,12.10
2011,03,03,03,55,16.20
2011,03,03,03,56,16.50
2011,03,03,03,57,13.50
2011,03,03,03,58,12.10
2011,03,03,03,59,11.60
2011,03,03,04,00,10.70
2011,03,03,04,01,14.70
2011,03,03,04,02,17.60
2011,03,03,04,03,15.60
2011,03,03,04,04,13.00
2011,03,03,04,05,13.10
2011,03,03,04,06,11.60
2011,03,03,04,07,11.30
2011,03,03,04,08,11.90
2011,03,03,04,09,12.00
2011,03,03,04,10,12.70
2011,03,03,04,11,7.60
2011,03,03,04,12,8.80
2011,03,03,04,13,10.00
2011,03,03,04,14,12.80
2011,03,03,04,15,13.90
2011,03,03,04,16,9.00
2011,03,03,04,17,12.30
2011,03,03,04,18,10.30
2011,03,03,04,19,13.80
2011,03,03,04,20,12.70
2011,03,03,04,21,10.40
2011,03,03,04,22,12.80
2011,03,03,04,23,10.10
2011,03,03,04,24,12.00
2011,03,03,04,25,9.40
2011,03,03,04,26,8.10
2011,03,03,04,27,6.50
2011,03,03,04,28,7.30
2011,03,03,04,29,12.60
2011,03,03,04,30,10.70
2011,03,03,04,31,9.00
2011,03,03,04,32,12.10
2011,03,03,04,33,13.00
2011,03,03,04,34,16.00
2011,03,03,04,35,12.20
2011,03,03,04,36,15.80
2011,03,03,04,37,13.90
2011,03,03,04,38,14.70
2011,03,03,04,39,14.60
2011,03,03,04,40,12.10
2011,03,03,04,41,10.00
2011,03,03,04,42,8.40
2011,03,03,04,43,10.90
2011,03,03,04,44,12.20
2011,03,03,04,45,12.30
2011,03,03,04,46,18.80
2011,03,03,04,47,20.60
2011,03,03,04,48,13.90
2011,03,03,04,49,11.20
2011,03,03,04,50,10.60
2011,03,03,04,51,16.90
2011,03,03,04,52,22.10
2011,03,03,04,53,20.80
2011,03,03,04,54,17.30
2011,03,03,04,55,14.50
2011,03,03,04,56,14.60
2011,03,03,04,57,14.00
2011,03,03,04,58,13.70
2011,03,03,04,59,14.90
2011,03,03,05,00,15.20
2011,03,03,05,01,13.20
2011,03,03,05,02,12.30
2011,03,03,05,03,10.20
2011,03,03,05,04,10.70
2011,03,03,05,05,7.80
2011,03,03,05,06,12.00
2011,03,03,05,07,8.80
2011,03,03,05,08,8.20
2011,03,03,05,09,8.10
2011,03,03,05,10,8.50
2011,03,03,05,11,9.70
2011,03,03,05,12,8.60
2011,03,03,05,13,7.50
2011,03,03,05,14,6.00
2011,03,03,05,15,6.80
2011,03,03,05,16,9.70
2011,03,03,05,17,5.70
2011,03,03,05,18,10.40
2011,03,03,05,19,5.10
2011,03,03,05,20,4.50
2011,03,03,05,21,3.30
2011,03,03,05,22,7.10
2011,03,03,05,23,1.90
2011,03,03,05,24,3.70
2011,03,03,05,25,2.90
2011,03,03,05,26,4.90
2011,03,03,05,27,5.40
2011,03,03,05,28,6.20
2011,03,03,05,29,2.90
2011,03,03,05,30,8.40
2011,03,03,05,31,2.70
2011,03,03,05,32,5.60
2011,03,03,05,33,4.40
2011,03,03,05,34,7.00
2011,03,03,05,35,12.90
2011,03,03,05,36,11.30
2011,03,03,05,37,11.50
2011,03,03,05,38,13.90
2011,03,03,05,39,5.60
2011,03,03,05,40,3.10
2011,03,03,05,41,3.10
2011,03,03,05,42,4.40
2011,03,03,05,43,6.20
2011,03,03,05,44,4.20
2011,03,03,05,45,7.10
2011,03,03,05,46,2.10
2011,03,03,05,47,1.40
2011,03,03,05,48,4.70
2011,03,03,05,49,8.40
2011,03,03,05,50,5.70
2011,03,03,05,51,2.20
2011,03,03,05,52,1.90
2011,03,03,05,53,2.50
2011,03,03,05,54,4.60
2011,03,03,05,55,2.00
2011,03,03,05,56,0.80
2011,03,03,05,57,8.30
2011,03,03,05,58,2.90
2011,03,03,05,59,3.10
2011,03,03,06,00,7.00
2011,03,03,06,01,6.60
2011,03,03,06,02,3.00
2011,03,03,06,03,5.40
2011,03,03,06,04,5.50
2011,03,03,06,05,10.00
2011,03,03,06,06,19.50
2011,03,03,06,07,16.00
2011,03,03,06,08,6.00
2011,03,03,06,09,9.40
2011,03,03,06,10,13.40
2011,03,03,06,11,12.80
2011,03,03,06,12,6.70
2011,03,03,06,13,10.00
2011,03,03,06,14,10.70
2011,03,03,06,15,7.40
2011,03,03,06,16,12.20
2011,03,03,06,17,10.40
2011,03,03,06,18,9.60
2011,03,03,06,19,10.60
2011,03,03,06,20,11.30
2011,03,03,06,21,10.70
2011,03,03,06,22,9.70
2011,03,03,06,23,8.40
2011,03,03,06,24,5.50
2011,03,03,06,25,3.60
2011,03,03,06,26,8.20
2011,03,03,06,27,6.90
2011,03,03,06,28,8.90
2011,03,03,06,29,11.20
2011,03,03,06,30,6.60
2011,03,03,06,31,10.20
2011,03,03,06,32,8.60
2011,03,03,06,33,11.30
2011,03,03,06,34,7.00
2011,03,03,06,35,12.20
2011,03,03,06,36,8.10
2011,03,03,06,37,8.00
2011,03,03,06,38,10.70
2011,03,03,06,39,8.20
2011,03,03,06,40,14.30
2011,03,03,06,41,13.00
2011,03,03,06,42,9.40
2011,03,03,06,43,10.60
2011,03,03,06,44,13.00
2011,03,03,06,45,13.90
2011,03,03,06,46,14.90
2011,03,03,06,47,10.30
2011,03,03,06,48,13.70
2011,03,03,06,49,8.60
2011,03,03,06,50,7.40
2011,03,03,06,51,9.70
2011,03,03,06,52,11.50
2011,03,03,06,53,11.70
2011,03,03,06,54,10.00
2011,03,03,06,55,11.00
2011,03,03,06,56,8.20
2011,03,03,06,57,10.70
2011,03,03,06,58,10.90
2011,03,03,06,59,11.70
2011,03,03,07,00,11.40
2011,03,03,07,01,9.90
2011,03,03,07,02,7.40
2011,03,03,07,03,8.70
2011,03,03,07,04,8.70
2011,03,03,07,05,12.50
2011,03,03,07,06,17.00
2011,03,03,07,07,8.90
2011,03,03,07,08,7.90
2011,03,03,07,09,7.40
2011,03,03,07,10,8.00
2011,03,03,07,11,7.90
2011,03,03,07,12,6.20
2011,03,03,07,13,9.90
2011,03,03,07,14,8.70
2011,03,03,07,15,10.60
2011,03,03,07,16,10.90
2011,03,03,07,17,6.70
2011,03,03,07,18,7.90
2011,03,03,07,19,5.60
2011,03,03,07,20,3.90
2011,03,03,07,21,6.70
2011,03,03,07,22,6.10
2011,03,03,07,23,6.20
2011,03,03,07,24,9.00
2011,03,03,07,25,10.80
2011,03,03,07,26,7.60
2011,03,03,07,27,6.60
2011,03,03,07,28,5.90
2011,03,03,07,29,6.40
2011,03,03,07,30,6.40
2011,03,03,07,31,5.20
2011,03,03,07,32,6.80
2011,03,03,07,33,5.10
2011,03,03,07,34,6.30
2011,03,03,07,35,5.20
2011,03,03,07,36,5.70
2011,03,03,07,37,3.70
2011,03,03,07,38,3.10
2011,03,03,07,39,2.20
2011,03,03,07,40,3.80
2011,03,03,07,41,2.00
2011,03,03,07,42,4.20
2011,03,03,07,43,4.60
2011,03,03,07,44,4.90
2011,03,03,07,45,3.40
2011,03,03,07,46,2.70
2011,03,03,07,47,0.20
2011,03,03,07,48,0.20
2011,03,03,07,49,0.00
2011,03,03,07,50,0.10
2011,03,03,07,51,1.40
2011,03,03,07,52,0.00
2011,03,03,07,53,0.20
2011,03,03,07,54,1.90
2011,03,03,07,55,1.60
2011,03,03,07,56,3.00
2011,03,03,07,57,2.50
2011,03,03,07,58,8.20
2011,03,03,07,59,8.20
2011,03,03,08,00,9.40
2011,03,03,08,01,8.40
2011,03,03,08,02,6.10
2011,03,03,08,03,5.10
2011,03,03,08,04,6.10
2011,03,03,08,05,9.00
2011,03,03,08,06,6.10
2011,03,03,08,07,7.20
2011,03,03,08,08,8.80
2011,03,03,08,09,13.00
2011,03,03,08,10,7.00
2011,03,03,08,11,9.40
2011,03,03,08,12,12.00
2011,03,03,08,13,8.40
2011,03,03,08,14,6.10
2011,03,03,08,15,7.60
2011,03,03,08,16,10.50
2011,03,03,08,17,9.70
2011,03,03,08,18,6.60
2011,03,03,08,19,3.70
2011,03,03,08,20,3.70
2011,03,03,08,21,0.30
2011,03,03,08,22,0.70
2011,03,03,08,23,0.50
2011,03,03,08,24,2.10
2011,03,03,08,25,5.20
2011,03,03,08,26,2.50
2011,03,03,08,27,0.50
2011,03,03,08,28,1.20
2011,03,03,08,29,0.50
2011,03,03,08,30,2.00
2011,03,03,08,31,0.90
2011,03,03,08,32,0.80
2011,03,03,08,33,0.30
2011,03,03,08,34,2.00
2011,03,03,08,35,0.80
2011,03,03,08,36,1.20
2011,03,03,08,37,0.90
2011,03,03,08,38,0.60
2011,03,03,08,39,0.00
2011,03,03,08,40,0.40
2011,03,03,08,41,2.50
2011,03,03,08,42,4.40
2011,03,03,08,43,4.90
2011,03,03,08,44,2.20
2011,03,03,08,45,1.20
2011,03,03,08,46,0.10
2011,03,03,08,47,0.10
2011,03,03,08,48,1.50
2011,03,03,08,49,4.10
2011,03,03,08,50,4.90
2011,03,03,08,51,3.80
2011,03,03,08,52,2.50
2011,03,03,08,53,3.40
2011,03,03,08,54,3.00
2011,03,03,08,55,3.10
2011,03,03,08,56,2.80
2011,03,03,08,57,1.80
2011,03,03,08,58,1.60
2011,03,03,08,59,3.80
2011,03,03,09,00,3.20
2011,03,03,09,01,2.70
2011,03,03,09,02,3.00
2011,03,03,09,03,3.40
2011,03,03,09,04,2.10
2011,03,03,09,05,2.10
2011,03,03,09,06,0.30
2011,03,03,09,07,0.10
2011,03,03,09,08,3.40
2011,03,03,09,09,2.50
2011,03,03,09,10,3.20
2011,03,03,09,11,2.10
2011,03,03,09,12,1.20
2011,03,03,09,13,1.10
2011,03,03,09,14,6.80
2011,03,03,09,15,9.30
2011,03,03,09,16,7.40
2011,03,03,09,17,4.90
2011,03,03,09,18,5.50
2011,03,03,09,19,5.20
2011,03,03,09,20,4.20
2011,03,03,09,21,2.30
2011,03,03,09,22,3.10
2011,03,03,09,23,7.40
2011,03,03,09,24,4.30
2011,03,03,09,25,2.10
2011,03,03,09,26,1.60
2011,03,03,09,27,1.80
2011,03,03,09,28,3.90
2011,03,03,09,29,1.10
2011,03,03,09,30,3.70
2011,03,03,09,31,1.90
2011,03,03,09,32,1.30
2011,03,03,09,33,0.80
2011,03,03,09,34,1.50
2011,03,03,09,35,1.20
2011,03,03,09,36,2.20
2011,03,03,09,37,0.20
2011,03,03,09,38,0.20
2011,03,03,09,39,2.30
2011,03,03,09,40,3.50
2011,03,03,09,41,1.30
2011,03,03,09,42,2.60
2011,03,03,09,43,3.10
2011,03,03,09,44,2.10
2011,03,03,09,45,4.80
2011,03,03,09,46,7.20
2011,03,03,09,47,3.40
2011,03,03,09,48,4.20
2011,03,03,09,49,2.00
2011,03,03,09,50,2.50
2011,03,03,09,51,2.00
2011,03,03,09,52,6.30
2011,03,03,09,53,5.40
2011,03,03,09,54,5.60
2011,03,03,09,55,5.40
2011,03,03,09,56,6.50
2011,03,03,09,57,5.50
2011,03,03,09,58,4.60
2011,03,03,09,59,3.80
2011,03,03,10,00,7.60
2011,03,03,10,01,10.10
2011,03,03,10,02,9.10
2011,03,03,10,03,5.90
2011,03,03,10,04,7.70
2011,03,03,10,05,9.00
2011,03,03,10,06,9.80
2011,03,03,10,07,6.50
2011,03,03,10,08,6.90
2011,03,03,10,09,10.90
2011,03,03,10,10,9.40
2011,03,03,10,11,11.00
2011,03,03,10,12,10.20
2011,03,03,10,13,9.30
2011,03,03,10,14,9.40
2011,03,03,10,15,12.60
2011,03,03,10,16,15.30
2011,03,03,10,17,10.30
2011,03,03,10,18,4.90
2011,03,03,10,19,8.10
2011,03,03,10,20,11.00
2011,03,03,10,21,10.20
2011,03,03,10,22,10.40
2011,03,03,10,23,10.30
2011,03,03,10,24,8.80
2011,03,03,10,25,9.80
2011,03,03,10,26,9.70
2011,03,03,10,27,7.60
2011,03,03,10,28,12.40
2011,03,03,10,29,10.00
2011,03,03,10,30,10.00
2011,03,03,10,31,12.50
2011,03,03,10,32,8.70
2011,03,03,10,33,9.60
2011,03,03,10,34,10.80
2011,03,03,10,35,8.70
2011,03,03,10,36,13.90
2011,03,03,10,37,11.60
2011,03,03,10,38,12.30
2011,03,03,10,39,16.20
2011,03,03,10,40,8.80
2011,03,03,10,41,8.40
2011,03,03,10,42,4.90
2011,03,03,10,43,8.00
2011,03,03,10,44,7.50
2011,03,03,10,45,7.00
2011,03,03,10,46,9.30
2011,03,03,10,47,9.30
2011,03,03,10,48,12.30
2011,03,03,10,49,10.30
2011,03,03,10,50,10.00
2011,03,03,10,51,7.20
2011,03,03,10,52,10.30
2011,03,03,10,53,13.80
2011,03,03,10,54,9.90
2011,03,03,10,55,9.10
2011,03,03,10,56,12.70
2011,03,03,10,57,11.30
2011,03,03,10,58,9.30
2011,03,03,10,59,10.60
2011,03,03,11,00,8.50
2011,03,03,11,01,9.70
2011,03,03,11,02,13.50
2011,03,03,11,03,12.00
2011,03,03,11,04,11.00
2011,03,03,11,05,15.70
2011,03,03,11,06,14.10
2011,03,03,11,07,10.90
2011,03,03,11,08,10.80
2011,03,03,11,09,12.50
2011,03,03,11,10,11.30
2011,03,03,11,11,14.20
2011,03,03,11,12,16.00
2011,03,03,11,13,15.50
2011,03,03,11,14,11.90
2011,03,03,11,15,8.30
2011,03,03,11,16,11.30
2011,03,03,11,17,14.70
2011,03,03,11,18,11.70
2011,03,03,11,19,8.90
2011,03,03,11,20,8.70
2011,03,03,11,21,11.90
2011,03,03,11,22,11.00
2011,03,03,11,23,10.50
2011,03,03,11,24,12.20
2011,03,03,11,25,8.90
2011,03,03,11,26,12.30
2011,03,03,11,27,18.20
2011,03,03,11,28,14.80
2011,03,03,11,29,10.50
2011,03,03,11,30,9.00
2011,03,03,11,31,11.50
2011,03,03,11,32,11.30
2011,03,03,11,33,7.50
2011,03,03,11,34,5.10
2011,03,03,11,35,4.80
2011,03,03,11,36,3.20
2011,03,03,11,37,3.30
2011,03,03,11,38,4.40
2011,03,03,11,39,8.00
2011,03,03,11,40,5.90
2011,03,03,11,41,11.80
2011,03,03,11,42,7.40
2011,03,03,11,43,9.20
2011,03,03,11,44,7.60
2011,03,03,11,45,8.10
2011,03,03,11,46,12.10
2011,03,03,11,47,16.70
2011,03,03,11,48,12.50
2011,03,03,11,49,13.60
2011,03,03,11,50,13.90
2011,03,03,11,51,12.30
2011,03,03,11,52,13.80
2011,03,03,11,53,14.40
2011,03,03,11,54,13.40
2011,03,03,11,55,9.00
2011,03,03,11,56,16.20
2011,03,03,11,57,14.20
2011,03,03,11,58,17.90
2011,03,03,11,59,18.10
2011,03,03,12,00,17.00
2011,03,03,12,01,15.90
2011,03,03,12,02,13.10
2011,03,03,12,03,16.80
2011,03,03,12,04,26.30
2011,03,03,12,05,19.70
2011,03,03,12,06,22.60
2011,03,03,12,07,16.20
2011,03,03,12,08,13.70
2011,03,03,12,09,16.50
2011,03,03,12,10,12.70
2011,03,03,12,11,10.90
2011,03,03,12,12,12.60
2011,03,03,12,13,13.00
2011,03,03,12,14,12.00
2011,03,03,12,15,9.40
2011,03,03,12,16,10.90
2011,03,03,12,17,9.00
2011,03,03,12,18,10.30
2011,03,03,12,19,13.30
2011,03,03,12,20,9.00
2011,03,03,12,21,7.80
2011,03,03,12,22,9.20
2011,03,03,12,23,9.70
2011,03,03,12,24,10.10
2011,03,03,12,25,5.10
2011,03,03,12,26,10.20
2011,03,03,12,27,9.80
2011,03,03,12,28,10.90
2011,03,03,12,29,11.70
2011,03,03,12,30,10.40
2011,03,03,12,31,19.20
2011,03,03,12,32,19.30
2011,03,03,12,33,16.90
2011,03,03,12,34,15.30
2011,03,03,12,35,18.40
2011,03,03,12,36,11.90
2011,03,03,12,37,12.00
2011,03,03,12,38,21.10
2011,03,03,12,39,15.90
2011,03,03,12,40,14.60
2011,03,03,12,41,14.00
2011,03,03,12,42,15.40
2011,03,03,12,43,17.90
2011,03,03,12,44,14.10
2011,03,03,12,45,14.30
2011,03,03,12,46,12.20
2011,03,03,12,47,14.80
2011,03,03,12,48,14.10
2011,03,03,12,49,17.10
2011,03,03,12,50,23.40
2011,03,03,12,51,17.80
2011,03,03,12,52,22.30
2011,03,03,12,53,20.50
2011,03,03,12,54,22.50
2011,03,03,12,55,14.50
2011,03,03,12,56,12.00
2011,03,03,12,57,14.60
2011,03,03,12,58,18.50
2011,03,03,12,59,28.20
2011,03,03,13,00,25.00
2011,03,03,13,01,25.10
2011,03,03,13,02,24.10
2011,03,03,13,03,23.00
2011,03,03,13,04,24.80
2011,03,03,13,05,22.50
2011,03,03,13,06,22.70
2011,03,03,13,07,22.80
2011,03,03,13,08,23.40
2011,03,03,13,09,24.10
2011,03,03,13,10,29.90
2011,03,03,13,11,39.50
2011,03,03,13,12,28.60
2011,03,03,13,13,35.30
2011,03,03,13,14,29.70
2011,03,03,13,15,28.70
2011,03,03,13,16,24.00
2011,03,03,13,17,26.10
2011,03,03,13,18,21.40
2011,03,03,13,19,18.20
2011,03,03,13,20,19.00
2011,03,03,13,21,22.50
2011,03,03,13,22,22.10
2011,03,03,13,23,21.30
2011,03,03,13,24,18.20
2011,03,03,13,25,18.20
2011,03,03,13,26,21.20
2011,03,03,13,27,18.00
2011,03,03,13,28,18.00
2011,03,03,13,29,14.90
2011,03,03,13,30,15.90
2011,03,03,13,31,19.60
2011,03,03,13,32,18.30
2011,03,03,13,33,24.10
2011,03,03,13,34,15.80
2011,03,03,13,35,13.60
2011,03,03,13,36,16.90
2011,03,03,13,37,17.20
2011,03,03,13,38,11.00
2011,03,03,13,39,10.90
2011,03,03,13,40,15.60
2011,03,03,13,41,12.90
2011,03,03,13,42,13.10
2011,03,03,13,43,14.30
2011,03,03,13,44,14.80
2011,03,03,13,45,12.80
2011,03,03,13,46,16.20
2011,03,03,13,47,13.20
2011,03,03,13,48,15.00
2011,03,03,13,49,16.60
2011,03,03,13,50,16.40
2011,03,03,13,51,13.80
2011,03,03,13,52,17.40
2011,03,03,13,53,16.00
2011,03,03,13,54,14.80
2011,03,03,13,55,12.40
2011,03,03,13,56,14.80
2011,03,03,13,57,11.70
2011,03,03,13,58,12.30
2011,03,03,13,59,11.30
2011,03,03,14,00,13.10
2011,03,03,14,01,12.40
2011,03,03,14,02,15.40
2011,03,03,14,03,14.20
2011,03,03,14,04,14.10
2011,03,03,14,05,16.00
2011,03,03,14,06,14.80
2011,03,03,14,07,17.20
2011,03,03,14,08,15.60
2011,03,03,14,09,8.90
2011,03,03,14,10,11.10
2011,03,03,14,11,13.70
2011,03,03,14,12,13.10
2011,03,03,14,13,15.20
2011,03,03,14,14,13.20
2011,03,03,14,15,21.40
2011,03,03,14,16,17.50
2011,03,03,14,17,20.30
2011,03,03,14,18,21.40
2011,03,03,14,19,17.70
2011,03,03,14,20,13.50
2011,03,03,14,21,10.00
2011,03,03,14,22,11.70
2011,03,03,14,23,10.20
2011,03,03,14,24,11.60
2011,03,03,14,25,10.30
2011,03,03,14,26,9.40
2011,03,03,14,27,11.10
2011,03,03,14,28,8.00
2011,03,03,14,29,9.80
2011,03,03,14,30,2.50
2011,03,03,14,31,1.30
2011,03,03,14,32,3.40
2011,03,03,14,33,7.60
2011,03,03,14,34,6.70
2011,03,03,14,35,5.40
2011,03,03,14,36,5.80
2011,03,03,14,37,8.30
2011,03,03,14,38,10.80
2011,03,03,14,39,6.40
2011,03,03,14,40,4.80
2011,03,03,14,41,5.90
2011,03,03,14,42,6.10
2011,03,03,14,43,4.40
2011,03,03,14,44,6.40
2011,03,03,14,45,6.20
2011,03,03,14,46,3.60
2011,03,03,14,47,2.20
2011,03,03,14,48,3.70
2011,03,03,14,49,0.50
2011,03,03,14,50,1.30
2011,03,03,14,51,2.80
2011,03,03,14,52,3.90
2011,03,03,14,53,5.40
2011,03,03,14,54,4.50
2011,03,03,14,55,4.90
2011,03,03,14,56,6.00
2011,03,03,14,57,6.70
2011,03,03,14,58,8.00
2011,03,03,14,59,4.80
2011,03,03,15,00,0.40
2011,03,03,15,01,0.70
2011,03,03,15,02,3.40
2011,03,03,15,03,4.40
2011,03,03,15,04,7.40
2011,03,03,15,05,7.90
2011,03,03,15,06,4.40
2011,03,03,15,07,4.10
2011,03,03,15,08,5.60
2011,03,03,15,09,5.50
2011,03,03,15,10,5.00
2011,03,03,15,11,7.90
2011,03,03,15,12,6.20
2011,03,03,15,13,6.10
2011,03,03,15,14,4.20
2011,03,03,15,15,6.40
2011,03,03,15,16,7.10
2011,03,03,15,17,5.60
2011,03,03,15,18,5.00
2011,03,03,15,19,7.10
2011,03,03,15,20,15.40
2011,03,03,15,21,14.60
2011,03,03,15,22,19.20
2011,03,03,15,23,16.60
2011,03,03,15,24,12.10
2011,03,03,15,25,16.60
2011,03,03,15,26,14.30
2011,03,03,15,27,17.90
2011,03,03,15,28,15.90
2011,03,03,15,29,16.90
2011,03,03,15,30,18.90
2011,03,03,15,31,17.10
2011,03,03,15,32,17.60
2011,03,03,15,33,12.30
2011,03,03,15,34,10.20
2011,03,03,15,35,6.90
2011,03,03,15,36,15.10
2011,03,03,15,37,16.10
2011,03,03,15,38,14.50
2011,03,03,15,39,9.80
2011,03,03,15,40,11.30
2011,03,03,15,41,10.30
2011,03,03,15,42,14.30
2011,03,03,15,43,9.00
2011,03,03,15,44,10.60
2011,03,03,15,45,7.90
2011,03,03,15,46,13.30
2011,03,03,15,47,10.10
2011,03,03,15,48,7.30
2011,03,03,15,49,7.50
2011,03,03,15,50,11.90
2011,03,03,15,51,12.80
2011,03,03,15,52,13.60
2011,03,03,15,53,12.40
2011,03,03,15,54,13.90
2011,03,03,15,55,11.80
2011,03,03,15,56,13.80
2011,03,03,15,57,12.30
2011,03,03,15,58,12.00
2011,03,03,15,59,11.00
2011,03,03,16,00,10.60
2011,03,03,16,01,6.40
2011,03,03,16,02,12.50
2011,03,03,16,03,13.30
2011,03,03,16,04,8.80
2011,03,03,16,05,7.80
2011,03,03,16,06,6.70
2011,03,03,16,07,10.70
2011,03,03,16,08,11.20
2011,03,03,16,09,14.60
2011,03,03,16,10,14.00
2011,03,03,16,11,20.40
2011,03,03,16,12,22.70
2011,03,03,16,13,13.00
2011,03,03,16,14,16.30
2011,03,03,16,15,17.10
2011,03,03,16,16,17.60
2011,03,03,16,17,14.00
2011,03,03,16,18,14.90
2011,03,03,16,19,8.40
2011,03,03,16,20,8.70
2011,03,03,16,21,8.70
2011,03,03,16,22,5.70
2011,03,03,16,23,8.00
2011,03,03,16,24,7.80
2011,03,03,16,25,13.60
2011,03,03,16,26,10.00
2011,03,03,16,27,6.40
2011,03,03,16,28,12.50
2011,03,03,16,29,12.40
2011,03,03,16,30,14.90
2011,03,03,16,31,9.40
2011,03,03,16,32,15.90
2011,03,03,16,33,12.70
2011,03,03,16,34,7.00
2011,03,03,16,35,10.30
2011,03,03,16,36,10.00
2011,03,03,16,37,9.30
2011,03,03,16,38,11.90
2011,03,03,16,39,11.70
2011,03,03,16,40,12.00
2011,03,03,16,41,11.00
2011,03,03,16,42,10.60
2011,03,03,16,43,12.40
2011,03,03,16,44,8.90
2011,03,03,16,45,8.30
2011,03,03,16,46,11.50
2011,03,03,16,47,13.40
2011,03,03,16,48,16.20
2011,03,03,16,49,9.90
2011,03,03,16,50,13.20
2011,03,03,16,51,14.80
2011,03,03,16,52,11.90
2011,03,03,16,53,9.20
2011,03,03,16,54,13.90
2011,03,03,16,55,15.40
2011,03,03,16,56,12.00
2011,03,03,16,57,10.60
2011,03,03,16,58,8.30
2011,03,03,16,59,11.60
2011,03,03,17,00,12.80
2011,03,03,17,01,7.40
2011,03,03,17,02,7.30
2011,03,03,17,03,5.20
2011,03,03,17,04,7.00
2011,03,03,17,05,7.10
2011,03,03,17,06,10.00
2011,03,03,17,07,7.90
2011,03,03,17,08,8.30
2011,03,03,17,09,12.00
2011,03,03,17,10,12.80
2011,03,03,17,11,6.20
2011,03,03,17,12,6.90
2011,03,03,17,13,8.00
2011,03,03,17,14,9.70
2011,03,03,17,15,7.80
2011,03,03,17,16,8.00
2011,03,03,17,17,8.00
2011,03,03,17,18,15.00
2011,03,03,17,19,13.00
2011,03,03,17,20,12.40
2011,03,03,17,21,13.60
2011,03,03,17,22,11.50
2011,03,03,17,23,8.90
2011,03,03,17,24,7.60
2011,03,03,17,25,5.00
2011,03,03,17,26,7.10
2011,03,03,17,27,9.50
2011,03,03,17,28,6.90
2011,03,03,17,29,7.50
2011,03,03,17,30,7.50
2011,03,03,17,31,9.40
2011,03,03,17,32,8.60
2011,03,03,17,33,5.10
2011,03,03,17,34,10.30
2011,03,03,17,35,8.30
2011,03,03,17,36,8.70
2011,03,03,17,37,7.00
2011,03,03,17,38,7.70
2011,03,03,17,39,9.20
2011,03,03,17,40,9.20
2011,03,03,17,41,10.90
2011,03,03,17,42,7.40
2011,03,03,17,43,8.20
2011,03,03,17,44,11.10
2011,03,03,17,45,8.10
2011,03,03,17,46,9.30